FW0976 Weather Reports


time (UTC)temp
C
wind
direction
speed
KPH
gust
KPH
rain 1hr
cm
rain 24hr
cm
rain mn
cm
humidity
%
barometer
mb
20260509064458 19 5 0.0 3.2 0.00 0.53 0.00 94 1010.2
20260509064003 19 41 0.0 1.6 0.00 0.53 0.00 94 1010.2
20260509063506 19 22 0.0 1.6 0.00 0.53 0.00 94 1010.2
20260509063008 19 344 0.0 1.6 0.00 0.53 0.00 94 1010.3
20260509062512 19 338 0.0 1.6 0.00 0.53 0.00 94 1010.2
20260509062011 19 144 0.0 0.0 0.00 0.53 0.00 94 1009.7
20260509061517 19 144 0.0 0.0 0.00 0.53 0.00 94 1009.4
20260509061020 19 144 0.0 1.6 0.00 0.53 0.00 94 1008.9
20260509060522 19 143 0.0 1.6 0.00 0.53 0.00 94 1008.8
20260509060024 19 143 0.0 1.6 0.00 0.53 0.00 94 1008.7
20260509055530 20 138 0.0 1.6 0.00 0.53 0.00 94 1008.7
20260509054522 20 167 0.0 1.6 0.00 0.53 0.00 94 1009.2
20260509054026 19 167 0.0 1.6 0.00 0.53 0.00 93 1009.2
20260509053533 19 168 0.0 1.6 0.00 0.53 0.00 93 1009.2
20260509053034 19 182 0.0 0.0 0.00 0.53 0.00 93 1009.4
20260509052535 19 197 0.0 1.6 0.00 0.53 0.00 92 1009.7
20260509051525 20 199 0.0 0.0 0.00 0.53 0.00 91 1009.9
20260509051030 20 199 0.0 0.0 0.00 0.53 0.00 91 1009.7
20260509050535 20 200 0.0 0.0 0.00 0.53 0.00 91 1009.8
20260509050036 20 200 0.0 0.0 0.00 0.53 0.53 91 1010.0
20260509045503 20 200 0.0 0.0 0.00 0.53 0.53 91 1010.0
20260509044536 20 146 0.0 0.0 0.00 0.53 0.53 91 1009.4
20260509044040 20 140 0.0 0.0 0.00 0.53 0.53 91 1009.4
20260509043457 20 140 0.0 0.0 0.00 0.53 0.53 89 1009.6
20260509042530 20 140 0.0 0.0 0.00 0.53 0.53 89 1009.5
20260509042033 20 140 0.0 0.0 0.00 0.53 0.53 89 1009.3
20260509041451 20 140 0.0 0.0 0.00 0.53 0.53 89 1009.2
20260509040954 20 140 0.0 0.0 0.00 0.53 0.53 89 1009.2
20260509040454 20 139 0.0 0.0 0.00 0.53 0.53 89 1009.3
20260509035955 20 139 0.0 0.0 0.00 0.53 0.53 89 1009.1
20260509034513 20 169 0.0 1.6 0.00 0.53 0.53 89 1008.6
20260509034013 20 129 0.0 1.6 0.00 0.53 0.53 89 1009.3
20260509033515 20 132 0.0 1.6 0.00 0.53 0.53 88 1009.3
20260509033016 20 165 0.0 1.6 0.00 0.53 0.53 88 1008.9
20260509032519 20 143 0.0 1.6 0.00 0.53 0.53 88 1008.5
20260509031510 20 154 0.0 1.6 0.00 0.53 0.53 87 1008.7
20260509031014 20 155 0.0 1.6 0.00 0.53 0.53 86 1008.8
20260509025518 21 155 0.0 0.0 0.00 0.53 0.53 85 1009.5
20260509024940 21 155 0.0 0.0 0.00 0.53 0.53 85 1009.6
20260509024442 21 155 0.0 0.0 0.00 0.53 0.53 85 1009.6
20260509024030 21 155 0.0 1.6 0.00 0.53 0.53 85 1009.5
20260509023454 21 155 0.0 1.6 0.00 0.53 0.53 85 1009.3
20260509022954 21 155 0.0 1.6 0.00 0.53 0.53 85 1009.2
20260509022024 21 155 0.0 0.0 0.00 0.53 0.53 84 1008.8
20260509021448 21 155 0.0 0.0 0.00 0.53 0.53 84 1008.7
20260509020950 21 155 0.0 0.0 0.00 0.53 0.53 83 1008.5
20260509015511 21 155 0.0 1.6 0.00 0.53 0.53 82 1008.2
20260509015014 21 155 0.0 1.6 0.00 0.53 0.53 81 1007.9
20260509014516 21 156 0.0 1.6 0.00 0.53 0.53 81 1007.8
20260509014016 21 150 0.0 1.6 0.00 0.53 0.53 81 1007.8
20260509013512 21 153 0.0 1.6 0.00 0.53 0.53 81 1008.0
20260509013015 22 153 0.0 1.6 0.00 0.53 0.53 81 1008.0
20260509012517 22 152 0.0 1.6 0.00 0.53 0.53 80 1007.9
20260509011936 22 148 0.0 1.6 0.00 0.53 0.53 80 1007.8
20260509011439 22 147 0.0 1.6 0.00 0.53 0.53 79 1007.8
20260509010941 22 149 0.0 1.6 0.00 0.53 0.53 79 1007.8
20260509010011 22 153 0.0 1.6 0.00 0.53 0.53 79 1007.8
20260509005003 22 157 0.0 1.6 0.00 0.53 0.53 78 1007.8
20260509004505 22 157 0.0 1.6 0.00 0.53 0.53 78 1007.7
20260509003450 22 154 0.0 3.2 0.00 0.53 0.53 77 1007.6
20260509002951 23 151 0.0 1.6 0.00 0.53 0.53 77 1007.4
20260509002453 23 141 0.0 9.7 0.00 0.53 0.53 77 1007.4
20260509001951 23 137 0.0 9.7 0.00 0.53 0.53 77 1007.4
20260509001449 23 144 0.0 3.2 0.00 0.53 0.53 76 1007.4
20260509000951 23 161 0.0 3.2 0.00 0.53 0.53 76 1007.3
20260509000449 23 146 0.0 3.2 0.00 0.53 0.53 76 1007.4
20260508235950 23 151 0.0 3.2 0.00 0.53 0.53 75 1007.4
20260508235012 24 157 0.0 3.2 0.00 0.53 0.53 75 1007.4
20260508234512 24 148 0.0 3.2 0.00 0.53 0.53 75 1007.4
20260508233457 24 144 0.0 6.4 0.00 0.53 0.53 74 1007.4
20260508233000 24 169 0.0 3.2 0.00 0.53 0.53 73 1007.4
20260508232457 24 138 0.0 3.2 0.00 0.53 0.53 73 1007.4
20260508231958 24 155 0.0 4.8 0.00 0.53 0.53 72 1007.5
20260508231500 25 162 0.0 4.8 0.00 0.53 0.53 72 1007.6
20260508231000 25 120 0.0 3.2 0.00 0.53 0.53 72 1007.5
20260508230457 25 169 0.0 3.2 0.00 0.53 0.53 71 1007.6
20260508224945 25 163 0.0 3.2 0.00 0.53 0.53 69 1007.6
20260508224437 25 129 0.0 3.2 0.00 0.53 0.53 68 1007.5
20260508223933 25 132 0.0 3.2 0.00 0.53 0.53 67 1007.6
20260508223428 25 126 0.0 3.2 0.00 0.53 0.53 67 1007.6
20260508223010 25 138 0.0 3.2 0.00 0.53 0.53 67 1007.7
20260508222421 26 163 0.0 3.2 0.00 0.53 0.53 66 1007.7
20260508221959 26 127 0.0 3.2 0.00 0.53 0.53 67 1007.7
20260508221451 26 140 0.0 1.6 0.00 0.53 0.53 66 1007.7
20260508220945 26 125 0.0 3.2 0.00 0.53 0.53 66 1007.6
20260508220439 26 123 0.0 3.2 0.00 0.53 0.53 66 1007.5
20260508215934 26 161 0.0 3.2 0.00 0.53 0.53 66 1007.5
20260508215431 26 121 0.0 1.6 0.00 0.53 0.53 67 1007.6
20260508214926 26 117 0.0 3.2 0.00 0.53 0.53 67 1007.5
20260508214418 26 157 0.0 3.2 0.00 0.53 0.53 66 1007.6
20260508213958 26 142 0.0 4.8 0.00 0.53 0.53 66 1007.5
20260508212926 26 150 0.0 4.8 0.00 0.53 0.53 68 1007.8
20260508212426 26 217 0.0 4.8 0.00 0.53 0.53 67 1008.0
20260508211928 26 165 1.6 12.9 0.00 0.53 0.53 66 1008.2
20260508211423 26 120 1.6 12.9 0.00 0.53 0.53 66 1008.2
20260508210920 26 144 1.6 12.9 0.00 0.53 0.53 66 1008.3
20260508210419 26 134 1.6 12.9 0.00 0.53 0.53 66 1008.4
20260508205918 26 154 0.0 11.3 0.00 0.53 0.53 65 1008.5
20260508205415 26 134 0.0 3.2 0.00 0.53 0.53 66 1008.6
20260508204914 26 138 0.0 4.8 0.00 0.53 0.53 64 1008.8
20260508204414 26 144 0.0 4.8 0.00 0.53 0.53 65 1009.1
20260508203916 26 175 0.0 4.8 0.00 0.53 0.53 66 1009.1
20260508203410 26 167 0.0 4.8 0.00 0.53 0.53 65 1009.1
20260508202952 26 167 0.0 4.8 0.00 0.53 0.53 65 1009.1
20260508202447 26 126 0.0 3.2 0.00 0.53 0.53 66 1009.2
20260508201942 25 126 0.0 3.2 0.00 0.53 0.53 66 1009.4
20260508201443 25 148 0.0 1.6 0.00 0.53 0.53 69 1009.6
20260508200942 24 143 0.0 1.6 0.00 0.53 0.53 68 1009.6
20260508200442 24 179 0.0 1.6 0.00 0.53 0.53 68 1009.8
20260508194435 24 182 0.0 3.2 0.00 0.53 0.53 67 1009.9
20260508193936 24 177 0.0 3.2 0.00 0.53 0.53 66 1010.0
20260508193432 25 121 0.0 3.2 0.00 0.53 0.53 66 1010.0
20260508192930 25 142 0.0 1.6 0.00 0.53 0.53 67 1010.0
20260508192429 25 145 0.0 6.4 0.00 0.53 0.53 66 1010.0
20260508191933 25 153 0.0 6.4 0.00 0.53 0.53 66 1009.9
20260508191434 25 150 0.0 3.2 0.00 0.53 0.53 66 1009.9
20260508190933 25 144 0.0 3.2 0.00 0.53 0.53 64 1010.0
20260508190431 25 138 0.0 12.9 0.00 0.53 0.53 65 1010.1
20260508185409 25 138 0.0 1.6 0.00 0.53 0.53 67 1010.2
20260508184911 25 126 0.0 1.6 0.00 0.53 0.53 67 1010.2
20260508184412 25 122 0.0 1.6 0.00 0.53 0.53 66 1010.2
20260508183911 24 135 0.0 3.2 0.00 0.53 0.53 68 1010.3
20260508183410 24 128 0.0 3.2 0.00 0.53 0.53 67 1010.5
20260508182910 24 180 0.0 1.6 0.00 0.53 0.53 69 1010.5
20260508182413 23 164 0.0 1.6 0.00 0.53 0.53 71 1010.7
20260508181912 24 127 0.0 1.6 0.00 0.53 0.53 68 1010.8
20260508181411 23 147 0.0 1.6 0.00 0.53 0.53 72 1010.9
20260508180356 23 140 0.0 1.6 0.00 0.53 0.53 71 1010.9
20260508175941 23 130 0.0 1.6 0.00 0.53 0.53 71 1011.2
20260508175355 23 108 0.0 1.6 0.00 0.53 0.53 74 1011.3
20260508174858 23 140 0.0 1.6 0.00 0.53 0.53 69 1011.4
20260508174440 23 140 0.0 3.2 0.00 0.53 0.53 69 1011.5
20260508173858 23 157 0.0 3.2 0.00 0.53 0.53 68 1011.7
20260508173437 23 196 0.0 1.6 0.00 0.53 0.53 68 1011.8
20260508172852 23 156 0.0 1.6 0.00 0.53 0.53 72 1011.9
20260508172354 22 176 0.0 3.2 0.00 0.53 0.53 72 1012.1
20260508171853 22 148 0.0 3.2 0.00 0.53 0.53 73 1012.0
20260508171400 22 175 0.0 1.6 0.00 0.53 0.53 75 1012.2
20260508170426 21 157 0.0 1.6 0.00 0.53 0.53 76 1012.5
20260508165927 21 153 0.0 1.6 0.00 0.53 0.53 79 1012.6
20260508165430 21 144 0.0 1.6 0.00 0.53 0.53 78 1012.7
20260508164932 21 159 0.0 1.6 0.00 0.53 0.53 79 1012.8
20260508163914 20 124 0.0 1.6 0.00 0.53 0.53 83 1013.0
20260508163412 20 153 0.0 1.6 0.00 0.53 0.53 83 1013.0
20260508162914 19 118 0.0 1.6 0.00 0.53 0.53 86 1013.0
20260508162413 19 126 0.0 1.6 0.00 0.53 0.53 87 1013.1
20260508161911 18 146 0.0 1.6 0.00 0.53 0.53 88 1013.1
20260508160938 18 149 0.0 1.6 0.05 0.53 0.53 89 1013.2
20260508160358 18 149 0.0 1.6 0.05 0.53 0.53 89 1013.2
20260508155429 17 159 0.0 1.6 0.05 0.53 0.53 88 1013.4
20260508154412 17 136 0.0 1.6 0.05 0.53 0.53 88 1013.4
20260508153911 17 135 0.0 1.6 0.05 0.53 0.53 89 1013.3
20260508153412 17 120 0.0 1.6 0.05 0.53 0.53 89 1013.3
20260508152354 17 153 0.0 1.6 0.05 0.53 0.53 89 1013.3
20260508151423 17 146 0.0 1.6 0.05 0.53 0.53 89 1013.3
20260508150921 17 146 0.0 1.6 0.00 0.48 0.48 88 1013.4
20260508150424 17 150 0.0 3.2 0.00 0.48 0.48 87 1013.4
20260508145924 17 153 0.0 4.8 0.00 0.48 0.48 89 1013.6
20260508145424 17 165 0.0 4.8 0.00 0.48 0.48 91 1013.5
20260508144923 17 140 0.0 1.6 0.00 0.48 0.48 95 1013.4
20260508144421 17 135 0.0 1.6 0.00 0.48 0.48 95 1013.5
20260508143920 17 167 0.0 1.6 0.00 0.48 0.48 95 1013.5
20260508143420 16 130 0.0 1.6 0.00 0.48 0.48 96 1013.6
20260508142919 16 130 0.0 1.6 0.00 0.48 0.48 96 1013.6
20260508142425 16 128 0.0 1.6 0.00 0.48 0.48 96 1013.6
20260508141927 16 127 0.0 0.0 0.00 0.48 0.48 96 1013.8
20260508141430 16 140 0.0 0.0 0.00 0.48 0.48 96 1013.8
20260508140928 16 141 0.0 0.0 0.00 0.48 0.48 96 1013.8
20260508140428 16 141 0.0 0.0 0.00 0.48 0.48 97 1014.2
20260508135410 16 141 0.0 0.0 0.05 0.48 0.48 97 1014.1
20260508134914 16 142 0.0 1.6 0.05 0.48 0.48 97 1014.4
20260508134413 16 142 0.0 1.6 0.05 0.48 0.48 97 1014.3
20260508133914 15 141 0.0 1.6 0.05 0.48 0.48 96 1013.8
20260508133419 15 143 0.0 0.0 0.05 0.48 0.48 96 1013.8
20260508132922 15 144 0.0 1.6 0.05 0.48 0.48 96 1013.8
20260508132422 15 148 0.0 1.6 0.05 0.48 0.48 97 1013.8
20260508131844 15 148 0.0 0.0 0.05 0.48 0.48 96 1014.3
20260508125838 15 128 0.0 1.6 0.08 0.46 0.46 96 1013.8
20260508125417 15 172 0.0 1.6 0.05 0.43 0.46 96 1014.2
20260508124917 15 175 0.0 0.0 0.05 0.43 0.43 95 1014.2
20260508123902 15 175 0.0 0.0 0.05 0.43 0.43 95 1014.3
20260508123406 14 175 0.0 1.6 0.05 0.43 0.43 95 1014.5
20260508122907 14 175 0.0 1.6 0.05 0.43 0.43 95 1014.3
20260508121855 14 175 0.0 1.6 0.05 0.43 0.43 95 1014.3
20260508120840 14 186 0.0 1.6 0.05 0.43 0.43 95 1014.5
20260508120341 14 138 0.0 1.6 0.05 0.43 0.43 95 1014.4
20260508115844 14 134 0.0 1.6 0.00 0.38 0.41 95 1013.7
20260508114831 14 154 0.0 1.6 0.00 0.38 0.38 95 1014.2
20260508113901 15 156 0.0 1.6 0.03 0.38 0.38 95 1013.5
20260508113359 15 121 0.0 1.6 0.03 0.38 0.38 95 1013.3
20260508112903 15 155 0.0 1.6 0.10 0.38 0.38 95 1013.2
20260508111412 15 146 0.0 1.6 0.38 0.38 0.38 95 1013.5
20260508110829 15 165 0.0 1.6 0.38 0.38 0.38 95 1013.8
20260508110328 15 168 0.0 1.6 0.38 0.38 0.38 95 1013.8
20260508105832 15 146 0.0 1.6 0.38 0.38 0.38 95 1014.0
20260508105331 15 138 0.0 1.6 0.38 0.38 0.38 95 1013.4
20260508104832 15 129 0.0 1.6 0.38 0.38 0.38 95 1013.0
20260508103901 15 142 0.0 1.6 0.36 0.36 0.38 95 1013.7
20260508102848 15 142 0.0 1.6 0.28 0.28 0.28 95 1013.4
20260508102349 14 137 0.0 0.0 0.03 0.03 0.03 95 1013.5
20260508102155 17 78 0.0 0.0 0.00 0.08 0.03 72 1015.1
20260508101946 18 46 0.0 6.4 0.00 0.08 0.03 69 1016.8
20260508101940 18 69 0.0 1.6 0.00 0.08 0.03 72 1016.8
20260508101401 14 137 0.0 1.6 0.00 0.00 0.00 94 1012.9
20260508100904 14 137 0.0 0.0 0.00 0.00 0.00 94 1013.2
20260508100616 17 92 0.0 1.6 0.00 0.08 0.03 74 1017.2
20260508100610 14 74 0.0 0.0 0.00 0.08 0.03 84 1016.8
20260508094857 14 136 0.0 0.0 0.00 0.00 0.00 92 1013.1
20260508094404 14 136 0.0 0.0 0.00 0.00 0.00 92 1013.3
20260508093908 14 136 0.0 1.6 0.00 0.00 0.00 92 1013.1
20260508093333 15 136 0.0 1.6 0.00 0.00 0.00 92 1012.9
20260508092840 15 136 0.0 1.6 0.00 0.00 0.00 92 1012.8
20260508092344 15 136 0.0 1.6 0.00 0.00 0.00 92 1013.0
20260508091846 15 136 0.0 1.6 0.00 0.00 0.00 92 1013.1
20260508091351 15 136 0.0 1.6 0.00 0.00 0.00 92 1013.2
20260508090850 15 153 0.0 1.6 0.00 0.00 0.00 91 1013.1
20260508090349 15 153 0.0 0.0 0.00 0.00 0.00 91 1013.5
20260508085853 15 153 0.0 1.6 0.00 0.00 0.00 91 1013.2
20260508085352 15 153 0.0 1.6 0.00 0.00 0.00 89 1013.4
20260508084854 15 153 0.0 0.0 0.00 0.00 0.00 89 1013.7
20260508084353 15 153 0.0 0.0 0.00 0.00 0.00 89 1013.5
20260508083852 15 153 0.0 0.0 0.00 0.00 0.00 89 1013.3
20260508083351 15 153 0.0 0.0 0.00 0.00 0.00 91 1013.5
20260508082853 15 154 0.0 0.0 0.00 0.00 0.00 89 1013.8
20260508082314 15 153 0.0 1.6 0.00 0.00 0.00 89 1013.8
20260508081855 15 153 0.0 1.6 0.00 0.00 0.00 89 1013.7
20260508081319 15 152 0.0 1.6 0.00 0.00 0.00 89 1013.7
20260508080338 15 163 0.0 1.6 0.00 0.00 0.00 91 1014.2
20260508075837 15 163 0.0 1.6 0.00 0.00 0.00 91 1014.4
20260508075336 15 163 0.0 1.6 0.00 0.00 0.00 92 1014.2
20260508074838 15 163 0.0 0.0 0.00 0.00 0.00 91 1014.5
20260508074339 15 163 0.0 0.0 0.00 0.00 0.00 92 1014.6
20260508073839 14 163 0.0 0.0 0.00 0.00 0.00 92 1014.3
20260508073339 14 163 0.0 0.0 0.00 0.00 0.00 92 1014.1
20260508072844 14 163 0.0 0.0 0.00 0.00 0.00 92 1014.0
20260508072346 14 163 0.0 0.0 0.00 0.00 0.00 91 1014.2
20260508071338 14 163 0.0 0.0 0.00 0.00 0.00 91 1014.3
20260508070841 14 163 0.0 0.0 0.00 0.00 0.00 91 1014.5
20260508070344 14 163 0.0 0.0 0.00 0.00 0.00 91 1014.6
20260508065849 14 163 0.0 0.0 0.00 0.00 0.00 91 1014.7